Location: ???? ????
(41.4149°N, 22.8816°E)
Time: 14:00:26
(UTC+00:00)

Okean 2 Rocket - Pass Details

Date: 14 July 2020
Orbit: 617 x 641 km, 82.5° (Epoch: 03 August)

Event Time Altitude Azimuth Distance (km) Brightness Sun altitude
Rises 02:10:05 0° 173° (S) 2,876 6.2 -9.6°
Reaches altitude 10° 02:12:21 10° 168° (SSE) 1,975 5.4 -9.3°
Maximum altitude 02:16:34 50° 93° (E) 785 4.0 -8.7°
Drops below altitude 10° 02:20:50 10° 18° (NNE) 1,992 6.6 -8.0°
Sets 02:23:07 0° 14° (NNE) 2,904 7.4 -7.7°
